Imperial, NE

10:44 AM MST on January 19, 2018 (GMT -0700)
Imperial Municipal

Weather History for KIML - January, 2013

Change the Weather History Date:

Sunday, January 20, 2013

  Actual Average Record
Temperature  
Mean Temperature 31 °F 28 °F  
Max Temperature 42 °F 41 °F 70 °F (2009)
Min Temperature 19 °F 16 °F -15 °F (1984)
Degree Days  
Heating Degree Days 34 37  
Month to date heating degree days 794 740  
Cooling Degree Days 0 0  
Month to date cooling degree days 0 0  
Year to date cooling degree days 0 0  
Moisture  
Dew Point 20 °F    
Average Humidity 71    
Maximum Humidity 96    
Minimum Humidity 45    
Precipitation  
Precipitation 0.00 in 0.01 in 0.83 in (1990)
Sea Level Pressure  
Sea Level Pressure 30.33 in    
Wind  
Wind Speed 9 mph (NNW)    
Max Wind Speed 36 mph    
Max Gust Speed 37 mph    
Visibility 10 miles    
Events      
T = Trace of Precipitation, MM = Missing Value Source: NWS Daily Summary

Daily Weather History Graph

Daily Weather History Graph

Search for Another Location

Airport or City:

Trip Planner

Search our weather history database for the weather conditions in past years. The results will help you decide how hot, cold, wet, or windy it might be!

Date:

Astronomy

Jan. 20, 2013 Rise Set
Actual Time 7:05 AM MST 4:50 PM MST
Civil Twilight 6:35 AM MST 5:20 PM MST
Nautical Twilight 6:02 AM MST 5:53 PM MST
Astronomical Twilight 5:29 AM MST 6:25 PM MST
Moon 11:52 AM MST (1/20) 1:39 AM MST (1/20)
Length of Visible Light 10h 44m
Length of Day
9h 45m
Waxing Gibbous, 67% of the Moon is Illuminated
Jan 20
Waxing Gibbous
Jan 26
Full
Feb 3
Last Quarter
Feb 10
New
Feb 17
First Quarter

Hourly Weather History & Observations

Time (MST) Temp. Windchill Dew Point Humidity Pressure Visibility Wind Dir Wind Speed Gust Speed Precip Events Conditions
12:35 AM 24.8 °F 6.6 °F 21.2 °F 86% 30.21 in 10.0 mi NNW 35.7 mph - N/A   Clear
12:53 AM 25.0 °F - 21.0 °F 85% 30.26 in 10.0 mi North - - N/A   Clear
1:53 AM 26.1 °F 16.8 °F 21.0 °F 81% 30.24 in 10.0 mi SSE 9.2 mph - N/A   Clear
2:53 AM 27.0 °F 18.0 °F 21.9 °F 81% 30.22 in 10.0 mi SSE 9.2 mph - N/A   Clear
3:53 AM 27.0 °F 16.1 °F 21.9 °F 81% 30.20 in 10.0 mi South 12.7 mph - N/A   Clear
4:53 AM 28.0 °F 22.8 °F 21.9 °F 78% 30.21 in 10.0 mi Variable 4.6 mph - N/A   Clear
5:53 AM 24.1 °F - 21.0 °F 88% 30.25 in 10.0 mi Calm Calm - N/A   Clear
6:53 AM 25.0 °F 20.7 °F 21.0 °F 85% 30.28 in 10.0 mi WNW 3.5 mph - N/A   Clear
7:53 AM 23.0 °F - 21.0 °F 92% 30.29 in 10.0 mi Calm Calm - N/A   Clear
8:53 AM 28.9 °F - 24.1 °F 82% 30.31 in 10.0 mi Calm Calm - N/A   Clear
9:53 AM 34.0 °F 28.0 °F 26.1 °F 73% 30.32 in 10.0 mi WNW 6.9 mph - N/A   Clear
10:53 AM 41.0 °F 30.5 °F 21.9 °F 47% 30.33 in 10.0 mi North 26.5 mph 33.4 mph N/A   Clear
11:53 AM 39.9 °F 29.2 °F 25.0 °F 55% 30.33 in 10.0 mi North 25.3 mph 32.2 mph N/A   Clear
12:53 PM 37.0 °F 25.6 °F 21.9 °F 54% 30.34 in 10.0 mi North 24.2 mph 31.1 mph N/A   Clear
1:53 PM 34.0 °F 21.8 °F 21.0 °F 59% 30.37 in 10.0 mi North 23.0 mph 27.6 mph N/A   Clear
2:53 PM 32.0 °F 20.5 °F 19.0 °F 59% 30.36 in 10.0 mi NNE 18.4 mph - N/A   Clear
3:53 PM 27.0 °F 14.7 °F 17.1 °F 66% 30.38 in 10.0 mi NE 16.1 mph - N/A   Clear
4:53 PM 24.1 °F 13.1 °F 17.1 °F 75% 30.40 in 10.0 mi NE 11.5 mph - N/A   Clear
5:53 PM 21.0 °F 14.6 °F 15.1 °F 78% 30.43 in 10.0 mi ESE 4.6 mph - N/A   Clear
6:53 PM 21.9 °F - 16.0 °F 78% 30.45 in 10.0 mi Calm Calm - N/A   Scattered Clouds
7:53 PM 21.9 °F 15.7 °F 17.1 °F 82% 30.47 in 10.0 mi SSW 4.6 mph - N/A   Clear
8:53 PM 21.9 °F 13.4 °F 17.1 °F 82% 30.44 in 10.0 mi SSW 6.9 mph - N/A   Clear
9:53 PM 19.9 °F 14.9 °F 16.0 °F 85% 30.44 in 10.0 mi SSW 3.5 mph - N/A   Clear
10:53 PM 19.9 °F - 17.1 °F 89% 30.40 in 10.0 mi Calm Calm - N/A   Scattered Clouds
11:53 PM 19.0 °F 12.3 °F 15.1 °F 85% 30.40 in 10.0 mi SSW 4.6 mph - N/A   Clear